Delta, CO

10:06 AM MST on December 07, 2016 (GMT -0700)
Delta

Weather History for KAJZ - May, 2014

Change the Weather History Date:

Sunday, May 25, 2014

  Actual Average (KMTJ) Record (KMTJ)
Temperature  
Mean Temperature 54 °F 61 °F  
Max Temperature 62 °F 77 °F 89 °F (2006)
Min Temperature 46 °F 46 °F 35 °F (1997)
Degree Days  
Heating Degree Days 11 5  
Month to date heating degree days 202  
Since 1 July heating degree days 6140  
Cooling Degree Days 0 1  
Month to date cooling degree days 7  
Year to date cooling degree days 7  
Growing Degree Days 4 (Base 50)    
Moisture  
Dew Point 47 °F    
Average Humidity 78    
Maximum Humidity 93    
Minimum Humidity 52    
Precipitation  
Precipitation 0.34 in 0.03 in 0.92 in (1997)
Month to date precipitation 0.97  
Year to date precipitation 4.19  
Sea Level Pressure  
Sea Level Pressure 30.08 in    
Wind  
Wind Speed 3 mph (ESE)    
Max Wind Speed 10 mph    
Max Gust Speed 17 mph    
Visibility 9 miles    
Events Rain , Thunderstorm    
T = Trace of Precipitation, MM = Missing Value Source: NWS Daily Summary

Daily Weather History Graph

Daily Weather History Graph

Search for Another Location

Airport or City:

Trip Planner

Search our weather history database for the weather conditions in past years. The results will help you decide how hot, cold, wet, or windy it might be!

Date:

Astronomy

May. 25, 2014 Rise Set
Actual Time 5:52 AM MDT 8:26 PM MDT
Civil Twilight 5:21 AM MDT 8:57 PM MDT
Nautical Twilight 4:43 AM MDT 9:35 PM MDT
Astronomical Twilight 4:00 AM MDT 10:18 PM MDT
Moon 3:56 AM MDT (5/25) 5:31 PM MDT (5/25)
Length of Visible Light 15h 35m
Length of Day
14h 33m
Waning Crescent, 10% of the Moon is Illuminated
May 25
Waning Crescent
May 28
New
Jun 5
First Quarter
Jun 12
Full
Jun 19
Last Quarter

Hourly Weather History & Observations

Time (MDT) Temp. Windchill Dew Point Humidity Pressure Visibility Wind Dir Wind Speed Gust Speed Precip Events Conditions
12:15 AM 54.3 °F - 45.9 °F 73% 30.07 in 10.0 mi ESE 4.6 mph - N/A Rain Light Rain
12:35 AM 53.1 °F - 47.3 °F 81% 30.08 in 7.0 mi East 4.6 mph - 0.01 in Rain Light Rain
12:55 AM 51.8 °F - 48.4 °F 88% 30.08 in 5.0 mi Calm Calm - 0.03 in Rain Light Rain
1:15 AM 51.8 °F - 48.7 °F 89% 30.08 in 7.0 mi Calm Calm - 0.01 in Rain Light Rain
1:35 AM 51.3 °F - 48.7 °F 91% 30.07 in 7.0 mi ESE 3.5 mph - 0.04 in Rain Light Rain
1:55 AM 50.9 °F - 48.9 °F 93% 30.07 in 7.0 mi Calm Calm - 0.06 in Rain Light Rain
2:15 AM 50.9 °F - 48.4 °F 91% 30.06 in 5.0 mi Calm Calm - 0.02 in Rain Light Rain
2:35 AM 50.5 °F - 48.4 °F 92% 30.06 in 7.0 mi Calm Calm - 0.04 in Rain Light Rain
2:55 AM 50.4 °F - 48.4 °F 93% 30.05 in 7.0 mi SSW 3.5 mph - 0.05 in Rain Light Rain
3:15 AM 50.4 °F - 48.4 °F 93% 30.05 in 7.0 mi South 3.5 mph - 0.01 in Rain Light Rain
3:35 AM 50.0 °F - 48.0 °F 93% 30.05 in 7.0 mi SE 4.6 mph - 0.03 in Rain Light Rain
3:55 AM 49.5 °F - 47.1 °F 92% 30.05 in 7.0 mi SE 8.1 mph - 0.05 in Rain Light Rain
4:15 AM 48.6 °F - 45.1 °F 88% 30.05 in 10.0 mi SE 8.1 mph - 0.01 in Rain Light Rain
4:35 AM 48.2 °F - 45.3 °F 90% 30.05 in 7.0 mi ESE 6.9 mph - 0.02 in Rain Light Rain
4:55 AM 47.3 °F - 44.8 °F 91% 30.06 in 7.0 mi East 6.9 mph - 0.05 in Rain Rain
5:15 AM 46.8 °F - 44.2 °F 91% 30.07 in 5.0 mi East 9.2 mph - 0.03 in   Overcast
5:35 AM 46.2 °F 42.2 °F 42.8 °F 88% 30.08 in 7.0 mi ESE 8.1 mph - 0.05 in Rain Light Rain
5:55 AM 46.0 °F 42.5 °F 42.8 °F 88% 30.08 in 7.0 mi East 6.9 mph - 0.06 in Rain Light Rain
6:15 AM 46.0 °F 43.9 °F 43.0 °F 89% 30.08 in 10.0 mi East 4.6 mph - 0.01 in Rain Light Rain
6:35 AM 46.4 °F 45.2 °F 42.8 °F 87% 30.08 in 10.0 mi NE 3.5 mph - 0.01 in   Overcast
6:55 AM 46.8 °F - 42.8 °F 86% 30.09 in 7.0 mi Calm Calm - 0.01 in   Overcast
7:15 AM 47.5 °F - 43.2 °F 85% 30.09 in 10.0 mi Calm Calm - N/A   Overcast
7:35 AM 48.0 °F - 42.3 °F 80% 30.10 in 7.0 mi Calm Calm - N/A   Overcast
7:55 AM 48.4 °F - 42.6 °F 80% 30.10 in 10.0 mi Calm Calm - N/A   Overcast
8:15 AM 48.2 °F - 43.5 °F 84% 30.10 in 7.0 mi Calm Calm - N/A   Overcast
9:15 AM 50.7 °F - 45.1 °F 81% 30.10 in 7.0 mi WSW 4.6 mph - N/A   Scattered Clouds
9:35 AM 50.9 °F - 45.0 °F 80% 30.09 in 10.0 mi SW 3.5 mph - N/A   Scattered Clouds
9:55 AM 51.8 °F - 45.5 °F 79% 30.10 in 10.0 mi Calm Calm - N/A   Scattered Clouds
10:15 AM 52.9 °F - 45.9 °F 77% 30.10 in 10.0 mi Calm Calm - N/A   Scattered Clouds
10:35 AM 54.1 °F - 46.0 °F 74% 30.10 in 10.0 mi Calm Calm - N/A   Clear
10:55 AM 54.7 °F - 45.9 °F 72% 30.09 in 10.0 mi Calm Calm - N/A   Clear
11:15 AM 55.9 °F - 45.7 °F 68% 30.09 in 10.0 mi Calm Calm - N/A   Clear
11:35 AM 56.7 °F - 44.4 °F 64% 30.09 in 10.0 mi Calm Calm - N/A   Scattered Clouds
11:55 AM 58.1 °F - 45.7 °F 63% 30.10 in 10.0 mi South 3.5 mph - N/A   Mostly Cloudy
12:15 PM 57.6 °F - 46.0 °F 65% 30.09 in 10.0 mi SSE 4.6 mph - N/A   Overcast
12:35 PM 58.5 °F - 46.2 °F 64% 30.08 in 10.0 mi Calm Calm - N/A   Mostly Cloudy
12:55 PM 59.2 °F - 45.5 °F 60% 30.08 in 10.0 mi Calm Calm - N/A Thunderstorm Thunderstorm
1:15 PM 60.6 °F - 45.5 °F 57% 30.07 in 10.0 mi Calm Calm - N/A Thunderstorm Thunderstorm
1:35 PM 61.2 °F - 45.0 °F 55% 30.06 in 10.0 mi Calm Calm - N/A Thunderstorm Scattered Clouds
1:55 PM 61.5 °F - 44.6 °F 54% 30.06 in 10.0 mi Calm Calm - N/A   Scattered Clouds
2:15 PM 61.5 °F - 45.0 °F 55% 30.06 in 10.0 mi Calm Calm - N/A Thunderstorm Mostly Cloudy
2:35 PM 61.7 °F - 44.1 °F 52% 30.05 in 10.0 mi Calm Calm - N/A   Overcast
2:55 PM 62.6 °F - 45.5 °F 54% 30.05 in 10.0 mi ENE 6.9 mph - N/A   Overcast
3:15 PM 61.7 °F - 46.2 °F 57% 30.06 in 10.0 mi NE 6.9 mph - N/A Thunderstorm Overcast
3:35 PM 61.5 °F - 47.1 °F 59% 30.06 in 10.0 mi NNE 5.8 mph - N/A   Overcast
3:55 PM 61.3 °F - 43.5 °F 52% 30.05 in 10.0 mi NNE 10.4 mph - N/A   Overcast
4:15 PM 58.5 °F - 43.7 °F 58% 30.05 in 5.0 mi NE 6.9 mph 17.3 mph 0.01 in Rain , Thunderstorm Rain
4:55 PM 58.5 °F - 48.7 °F 70% 30.03 in 7.0 mi NNE 4.6 mph - 0.02 in   Overcast
5:15 PM 59.2 °F - 48.2 °F 67% 30.05 in 10.0 mi South 6.9 mph - N/A   Mostly Cloudy
5:35 PM 58.5 °F - 49.1 °F 71% 30.06 in 10.0 mi South 6.9 mph - N/A   Overcast
5:55 PM 58.3 °F - 50.0 °F 74% 30.07 in 10.0 mi SSW 6.9 mph - N/A Rain Light Rain
6:15 PM 57.6 °F - 49.3 °F 74% 30.07 in 7.0 mi ESE 5.8 mph - N/A Rain Light Rain
6:35 PM 57.0 °F - 48.6 °F 73% 30.07 in 7.0 mi NE 3.5 mph - 0.01 in Rain Light Rain
6:55 PM 57.6 °F - 49.1 °F 73% 30.08 in 10.0 mi Calm Calm - 0.01 in   Overcast
7:15 PM 56.8 °F - 49.3 °F 76% 30.08 in 10.0 mi SSW 5.8 mph - N/A   Overcast
7:35 PM 56.1 °F - 50.4 °F 81% 30.09 in 10.0 mi Calm Calm - N/A   Overcast
7:55 PM 55.6 °F - 51.1 °F 85% 30.09 in 10.0 mi Calm Calm - N/A   Overcast
8:15 PM 55.8 °F - 51.6 °F 86% 30.10 in 10.0 mi WSW 8.1 mph - N/A   Overcast
8:35 PM 54.7 °F - 50.0 °F 84% 30.10 in 10.0 mi WSW 5.8 mph - N/A   Overcast
8:55 PM 54.5 °F - 50.0 °F 85% 30.10 in 10.0 mi West 4.6 mph - N/A   Overcast
9:15 PM 54.7 °F - 50.0 °F 84% 30.11 in 10.0 mi Calm Calm - N/A   Overcast
9:35 PM 54.0 °F - 51.1 °F 90% 30.12 in 10.0 mi NNE 3.5 mph - N/A   Overcast
9:55 PM 53.6 °F - 50.4 °F 89% 30.13 in 10.0 mi NNE 3.5 mph - N/A   Mostly Cloudy
10:15 PM 53.1 °F - 50.4 °F 91% 30.13 in 10.0 mi Calm Calm - N/A   Scattered Clouds
10:35 PM 53.2 °F - 50.9 °F 92% 30.14 in 10.0 mi NE 8.1 mph - N/A   Overcast
10:55 PM 53.2 °F - 50.0 °F 89% 30.14 in 10.0 mi ENE 4.6 mph - N/A   Overcast
11:15 PM 53.1 °F - 50.0 °F 89% 30.14 in 10.0 mi NE 3.5 mph - N/A   Overcast
11:35 PM 52.5 °F - 49.5 °F 89% 30.14 in 10.0 mi Calm Calm - N/A   Mostly Cloudy
11:55 PM 50.9 °F - 48.7 °F 92% 30.14 in 10.0 mi ENE 3.5 mph - N/A   Scattered Clouds